Regional Weather Roundup
Issued by NWS

Home | Current Version | Previous Version | Text Only | Print | Product List | Glossary On
Versions: 1 2 3 4 5 6 7 8 9 10 11 12 13 14 15 16 17 18 19 20 21 22 23 24 25 26 27 28 29 30 31 32 33 34 35 36 37 38 39 40 41 42 43 44 45 46 47 48 49 50
000
ASUS43 KDMX 260007
RWRIA

WEATHER ROUNDUP FOR IOWA
NATIONAL WEATHER SERVICE DES MOINES IA
600 PM CST TUE NOV 25 2014

NOTE: "FAIR" INDICATES FEW OR NO CLOUDS BELOW 12,000 FEET WITH NO
SIGNIFICANT WEATHER AND/OR OBSTRUCTIONS TO VISIBILITY.

* - THESE STATIONS ARE NOT NWS STATIONS...THUS NOT UNDER NWS
QUALITY CONTROL.  THEY ALSO DO NOT REPORT WEATHER SUCH
AS PRECIPITATION OR FOG.

IAZ001>003-012>014-020>022-031>034-043>046-260100-
   NORTHWEST IOWA

CITY           SKY/WX    TMP DP  RH WIND       PRES   REMARKS
CARROLL *      CLEAR     28  21  74 SE7       29.99S WCI  21
CHEROKEE *     CLOUDY    32  20  61 SE8       29.93F WCI  25
DENISON *      CLEAR     34  19  55 SE9G17    29.93F WCI  26
LE MARS *      CLOUDY    36  23  60 SE9G16    29.90F WCI  29
ORANGE CITY *  PTCLDY    34  21  60 SE7       29.89F WCI  28
SHELDON *      CLEAR     32  21  64 SE12      29.89F WCI  23
SIOUX CITY     CLOUDY    38  24  57 SE12      29.90F WCI  30
6HR MIN TEMP:  37; 6HR MAX TEMP:  43;

SPENCER        MOCLDY    30  17  58 SE12      29.94F WCI  20
6HR MIN TEMP:  30; 6HR MAX TEMP:  36;

STORM LAKE *   CLEAR     30  19  64 S13       29.95S WCI  20
$$

IAZ055>058-069>071-079>083-090>094-260100-
   SOUTHWEST IOWA

CITY           SKY/WX    TMP DP  RH WIND       PRES   REMARKS
ATLANTIC *     CLEAR     32  19  59 S6        29.99S WCI  26
AUDUBON *      CLEAR     30  16  55 S5        29.99S WCI  25
CLARINDA *     CLEAR     36  19  51 S10       30.04R WCI  28
COUNCIL BLFS * CLOUDY    36  23  60 SE14      29.94F WCI  27
CRESTON *      CLEAR     30  18  59 S8        30.03S WCI  23
HARLAN  *      CLEAR     34  21  60 S9        30.00F WCI  26
LAMONI         CLEAR     31  16  54 S7        30.05F WCI  24
6HR MIN TEMP:  31; 6HR MAX TEMP:  37;

RED OAK *      PTCLDY    34  19  55 S9        30.00S WCI  26
SHENANDOAH *   MOCLDY    36  23  60 SE12      30.01S WCI  27
$$

IAZ047>049-059>061-072>074-084-260100-
   CENTRAL IOWA

CITY           SKY/WX    TMP DP  RH WIND       PRES   REMARKS
AMES           PTCLDY    27  14  58 SE7       30.05S WCI  19
6HR MIN TEMP:  27; 6HR MAX TEMP:  33;

ANKENY *       CLEAR     28  12  50 SE3       30.06S
CHARITON *     CLEAR     28  16  59 S8        30.07S WCI  20
DES MOINES     MOCLDY    33   8  35 SE8       30.05F WCI  26
6HR MIN TEMP:  31; 6HR MAX TEMP:  37;

GRINNELL*      CLEAR     27  16  63 SE6       30.08S WCI  20
KNOXVILLE *    CLEAR     30  12  47 SE7       30.06S WCI  23
MARSHALLTOWN   CLEAR     21  16  81 SE8       30.06S WCI  11
6HR MIN TEMP:  21; 6HR MAX TEMP:  29;

PELLA *        CLEAR     28  17  62 SE5       30.09S WCI  23
PERRY *          N/A     30  21  69 SE7       30.03S WCI  23
$$

IAZ004>006-015-016-023>025-035-036-260100-
   NORTH CENTRAL IOWA

CITY           SKY/WX    TMP DP  RH WIND       PRES   REMARKS
ALGONA *       CLEAR     28  16  59 SE12      29.99S WCI  18
CLARION *      PTCLDY    27  18  69 SE9       30.02R WCI  17
ESTHERVILLE    PTCLDY    26  15  63 SE12      29.95F WCI  16
6HR MIN TEMP:  26; 6HR MAX TEMP:  34;

FORT DODGE *   MOCLDY    30  10  43 SE7       30.01F WCI  23
MASON CITY     PTCLDY    22  16  78 SE12      30.04S WCI  10
6HR MIN TEMP:  22; 6HR MAX TEMP:  29;

FOREST CITY *  MOCLDY    27  19  74 SE10      30.01S WCI  17
IOWA FALLS *     N/A     23  18  80 SE7       30.06S WCI  15
$$

IAZ007>011-017>019-026>030-037>042-050>054-066-260100-
   NORTHEAST IOWA

CITY           SKY/WX    TMP DP  RH WIND       PRES   REMARKS
CEDAR RAPIDS   CLEAR     21  17  84 E3        30.10F
6HR MIN TEMP:  21; 6HR MAX TEMP:  28;

CHARLES CITY * CLEAR     18  12  79 SE8       30.06S WCI   7
CLINTON *      CLEAR     19  12  73 CALM      30.16S
DECORAH *      CLEAR     16  12  86 S5        30.06S WCI   9
DUBUQUE        CLEAR     15  13  91 SW6       30.10S WCI   6
6HR MIN TEMP:  15; 6HR MAX TEMP:  23;

MONTICELLO *   CLEAR     19  16  86 CALM      30.11F
OELWEIN *      CLEAR     19  14  79 SE5       30.08S WCI  13
WATERLOO       CLEAR     16  12  84 SE3       30.09R
6HR MIN TEMP:  15; 6HR MAX TEMP:  24;

$$

IAZ064-065-067-068-078-260100-
   EAST CENTRAL IOWA

CITY           SKY/WX    TMP DP  RH WIND       PRES   REMARKS
DAVENPORT      PTCLDY    18  14  84 CALM      30.14S
6HR MIN TEMP:  18; 6HR MAX TEMP:  24;

IOWA CITY      CLEAR     25  19  78 SE5       30.13F WCI  19
6HR MIN TEMP:  24; 6HR MAX TEMP:  29;

MT. PLEASANT * CLEAR     24  19  84 SE5       30.13F WCI  18
MUSCATINE *    CLEAR     21  19  93 CALM      30.15S
QUAD CITIES    PTCLDY    21  16  81 SW3       30.15R
6HR MIN TEMP:  20; 6HR MAX TEMP:  27;

$$

IAZ062-063-075>077-085>089-095>099-260100-
   SOUTHEAST IOWA

CITY           SKY/WX    TMP DP  RH WIND       PRES   REMARKS
BURLINGTON       N/A     26  22  84 CALM      30.14R
6HR MIN TEMP:  24; 6HR MAX TEMP:  31;

FAIRFIELD *    CLEAR     27  19  74 SE6       30.12S WCI  20
FORT MADISON * CLEAR     28  23  80 CALM      30.15R
KEOKUK *       CLEAR     30  21  69 CALM      30.13S
OSKALOOSA *      N/A     27  18  69 SE6       30.10S WCI  21
CENTERVILLE *  CLEAR     27  16  63 SE6       30.10S WCI  20
OTTUMWA        CLEAR     26  16  65 SE6       30.10S WCI  19
6HR MIN TEMP:  26; 6HR MAX TEMP:  34;

WASHINGTON *   CLEAR     23  23 100 SE6       30.12F WCI  16
$$

ABBREVIATIONS USED IN REMARKS
   TC - TEMPERATURES IN CELSIUS
  WCI - WIND CHILL INDEX
   HX - HEAT INDEX
  VSB - VISIBILITY
$$



USA.gov is the U.S. government's official web portal to all federal, state and local government web resources and services.